Location: Copeville
(33.0796°N, 96.4155°W)
Time: 20:30:23
(UTC+00:00)

NOAA 12 - Pass Details

Date: 03 July 2022
Orbit: 795 x 815 km, 98.5° (Epoch: 08 August)

Event Time Altitude Azimuth Distance (km) Brightness Sun altitude
Rises 10:40:58 0° 42° (NE) 3,341 9.2 -8.1°
Reaches altitude 10° 10:45:58 10° 83° (E) 2,399 7.7 -7.2°
Maximum altitude 10:46:44 10° 91° (E) 2,377 7.5 -7.1°
Drops below altitude 10° 10:47:29 10° 99° (E) 2,396 7.3 -6.9°
Sets 10:52:25 0° 141° (SE) 3,315 7.4 -6.1°
